Temperature
18 18 18 18 18 18 18 18 18 17 17 18 18 17 17 17 17 17 17 17 17 17 17 17 16 16 16 16 16 16 16 15 15 15 15 15 15 15
18 18 18 18 18 18 17 17 17 17 17 17 17 17 17 17 17 17 17 17 17 17 16 16 16 16 16 16 16 16 16 15 15 15 15 15 15 15
18 18 18 18 17 17 17 17 17 17 17 17 17 17 17 17 17 17 17 17 16 16 16 16 16 16 16 16 15 15 15 15 15 15 15 15 15 15
17 17 17 17 17 17 17 17 17 17 17 17 17 17 17 17 17 17 16 16 16 16 16 16 16 16 16 16 15 15 15 15 15 15 14 14 14 14
17 17 17 17 17 17 17 17 17 17 17 16 17 17 16 16 16 16 16 16 16 16 16 16 16 16 16 15 15 15 15 15 15 14 14 14 14 14
17 17 17 17 17 17 17 16 16 16 16 16 16 16 16 16 16 16 16 16 16 16 16 16 15 15 15 15 15 15 15 15 15 14 14 14 14 14
17 17 17 16 16 16 16 16 16 16 16 16 16 16 16 16 15 15 15 15 15 15 15 15 15 15 15 15 15 15 15 15 14 14 14 14 14 13
17 16 16 16 16 16 16 16 16 16 16 15 15 15 15 15 15 15 15 15 15 15 15 15 15 15 15 15 15 15 14 14 14 14 14 14 13 13
16 16 16 16 16 16 16 16 15 15 15 15 15 15 15 15 15 15 14 14 15 15 14 15 15 15 15 15 15 14 14 14 14 14 14 14 13 13
16 16 16 16 16 16 15 15 15 15 15 15 15 15 15 15 14 14 14 14 14 14 14 14 15 15 15 15 14 14 14 14 14 14 13 13 13 13
16 16 15 15 15 15 15 15 15 15 15 15 15 14 14 14 14 14 14 14 14 14 14 14 14 14 14 14 14 14 14 14 13 13 13 13 13 13
16 15 15 15 15 15 15 15 15 15 14 14 14 14 14 14 14 14 14 14 13 14 14 14 14 13 13 14 14 14 13 13 13 13 13 13 13 12
15 15 15 15 15 14 14 14 14 14 14 14 14 14 14 14 14 14 14 13 13 13 13 13 13 13 13 13 13 13 13 13 13 13 13 13 12 12
15 15 15 15 14 14 14 14 14 14 14 14 14 14 14 14 14 14 13 13 13 13 13 13 12 12 12 12 12 13 13 12 12 12 12 12 12 12
15 15 15 14 14 14 14 14 14 14 14 13 13 14 14 14 13 13 13 13 13 13 13 12 12 12 12 12 12 12 12 12 12 12 12 12 12 12
14 14 14 14 14 14 14 14 14 14 13 13 13 13 13 13 13 13 13 13 12 13 13 12 12 12 12 12 12 12 12 11 11 11 11 11 11 11
14 14 14 14 14 14 14 14 13 13 13 13 13 13 13 13 13 12 12 12 12 12 12 12 12 11 11 11 11 11 11 11 11 11 11 11 11 11
14 14 14 13 13 13 13 13 13 13 13 13 13 12 12 12 12 12 12 11 11 11 11 11 11 11 11 11 11 11 11 10 10 10 10 10 10 10
14 13 13 13 13 13 13 13 13 13 12 12 12 12 12 11 11 11 11 11 11 11 11 11 10 10 10 10 10 10 10 10 10 10 10 9 9 10
13 13 13 13 12 12 12 12 12 12 12 12 11 11 11 11 11 11 11 10 10 10 10 10 10 10 10 10 9 9 9 9 9 9 9 9 9 9
13 12 12 12 12 12 12 12 11 11 11 11 11 11 11 10 10 10 10 10 10 10 10 10 9 9 9 9 9 9 9 9 9 9 9 9 9 9
12 12 12 11 11 11 11 11 11 11 11 11 10 10 10 10 10 10 10 9 9 9 9 9 9 9 9 9 8 8 9 9 8 8 8 8 8 8
11 11 11 11 11 10 10 10 10 10 10 10 10 10 10 9 9 9 9 9 9 9 8 8 8 8 8 8 8 8 8 8 8 8 8 8 8 8
Wind_Speed
2 1 1 2 1 1 2 3 3 2 3 3 2 2 4 5 7 8 8 10 12 13 13 12 12 12 11 11 12 11 11 12 12 12 11 10 10 10
1 1 2 2 1 1 1 1 2 3 3 3 3 2 2 4 6 7 9 10 12 12 13 13 13 12 12 12 12 12 12 12 12 12 12 11 11 10
2 2 3 2 2 1 1 1 1 2 3 4 2 2 1 2 2 5 6 7 8 11 12 12 12 12 12 11 12 12 12 11 11 11 12 11 11 11
3 2 3 3 2 2 1 2 2 2 3 3 3 2 2 3 3 3 3 5 6 8 10 12 12 12 12 12 12 13 12 12 12 11 11 11 11 11
3 3 4 3 3 3 2 2 2 2 2 2 3 2 2 1 1 2 2 2 4 6 8 9 11 11 12 12 12 12 13 13 12 12 11 11 11 10
4 4 4 4 4 4 3 3 2 1 1 1 2 2 2 2 0 1 2 2 3 4 4 6 8 10 11 12 12 13 13 13 13 13 12 12 11 11
4 4 4 4 5 4 3 3 3 2 1 1 2 1 2 1 2 2 2 3 3 2 2 3 4 5 7 10 12 13 13 14 14 13 13 12 12 11
4 4 3 3 4 5 5 4 5 4 3 2 2 2 3 3 2 2 1 1 3 2 2 4 3 4 6 7 10 12 12 13 14 14 13 13 12 12
4 4 3 2 2 1 2 2 3 5 6 4 4 4 3 4 3 2 2 3 4 3 2 4 3 4 5 7 10 11 12 12 13 13 13 13 12 12
5 5 4 3 2 2 1 1 2 3 4 4 5 5 4 4 4 4 4 3 4 3 2 3 3 4 4 5 8 10 11 11 12 12 13 13 13 12
4 4 4 4 5 4 3 2 2 3 3 4 5 5 5 5 3 1 1 1 3 3 2 2 2 3 3 4 5 7 9 10 11 12 12 12 12 10
3 3 5 5 5 5 3 3 4 5 3 2 3 3 3 4 5 5 4 3 2 3 2 2 1 1 2 3 2 2 3 6 8 9 10 11 10 7
3 3 3 4 5 5 5 5 7 5 3 3 3 3 3 3 3 4 5 5 4 5 3 3 2 2 2 3 3 3 3 2 3 4 7 9 10 9
4 4 4 5 6 6 5 6 7 4 2 2 3 4 4 4 4 4 5 6 6 6 5 4 3 3 3 2 3 2 2 2 2 3 3 5 7 9
4 5 6 7 6 5 7 7 4 2 2 3 4 5 5 4 2 2 2 3 4 6 6 5 4 4 3 4 3 3 2 2 3 3 3 3 4 4
4 5 5 5 4 4 4 3 2 3 3 4 4 4 3 2 2 2 2 2 2 4 4 4 5 4 4 4 4 4 3 2 2 3 3 3 3 4
3 1 1 1 2 2 2 2 2 1 2 3 3 3 3 3 3 2 2 2 2 3 4 3 2 2 3 3 3 4 4 3 3 3 2 3 3 4
3 2 2 3 3 3 3 3 2 2 3 2 3 4 4 4 3 2 2 2 3 4 3 3 1 1 2 3 4 4 3 3 3 2 2 3 4 4
3 3 4 4 4 3 3 3 3 3 3 3 3 4 3 3 2 3 2 3 3 4 4 3 2 2 3 4 4 3 3 3 2 2 2 3 4 4
2 3 4 3 3 3 3 3 3 3 3 3 3 3 3 3 3 3 3 4 4 3 3 3 3 4 5 5 3 3 3 4 3 3 2 2 2 3
4 3 3 3 3 3 3 3 3 3 3 3 3 3 3 3 3 4 4 5 4 3 4 5 6 6 3 1 1 3 3 4 5 3 3 1 2 1
3 3 3 3 3 3 3 3 3 3 3 3 3 3 3 3 4 4 4 3 4 4 4 4 3 2 2 3 4 4 3 3 2 2 3 4 3 4
3 3 3 3 3 3 3 2 2 3 2 3 3 3 3 3 3 3 3 3 3 3 3 3 2 1 2 3 4 3 3 2 1 1 3 4 4 5
Wind_Direction
245 254 263 271 255 226 196 178 175 241 273 260 261 238 212 210 216 209 209 212 213 217 219 222 222 221 221 220 222 224 225 224 223 224 226 228 231 235
244 254 266 267 279 271 227 210 183 190 238 255 245 252 236 219 221 211 218 219 218 221 222 223 224 224 224 224 225 226 226 226 227 226 228 228 230 232
263 254 265 262 270 284 269 249 225 181 229 277 269 264 238 230 220 217 224 221 224 225 226 225 225 226 226 225 227 227 228 227 229 229 230 228 228 230
252 260 274 274 272 265 254 252 245 212 196 258 286 285 257 239 228 230 231 230 229 234 231 230 229 228 227 225 225 226 226 226 227 227 227 228 228 230
236 239 256 257 264 262 256 257 254 244 198 217 273 289 286 266 271 274 262 263 247 246 239 236 235 232 231 229 226 224 224 225 226 226 226 227 227 228
245 243 246 237 240 246 247 244 236 245 244 227 272 293 295 295 271 277 292 276 269 264 249 243 238 240 242 238 231 226 225 226 226 227 229 229 228 226
255 252 245 240 238 237 239 226 213 217 233 233 260 286 292 311 273 260 267 287 279 257 258 255 240 245 248 245 237 232 229 229 228 228 230 231 231 228
255 266 258 255 254 253 246 222 203 204 215 218 237 246 253 251 256 257 257 298 290 268 235 263 231 244 246 238 236 235 234 232 230 229 230 230 228 228
243 248 256 260 232 254 268 261 247 228 205 191 215 231 231 227 215 249 242 234 250 261 232 265 252 248 249 244 237 237 235 233 233 232 231 229 228 229
241 233 229 245 235 211 222 256 269 270 234 207 212 229 234 228 207 212 229 251 272 269 205 242 264 257 258 253 247 236 233 232 233 233 231 229 229 229
256 243 230 228 239 219 205 236 274 286 269 230 226 239 244 233 208 175 214 240 279 280 227 208 266 284 274 261 259 241 236 238 238 235 231 226 224 223
268 260 243 241 253 228 210 216 248 263 266 284 279 280 266 250 226 202 201 210 237 265 245 194 249 314 305 284 268 261 250 248 241 236 229 222 215 208
256 264 266 261 259 247 231 229 242 247 248 247 263 275 280 269 249 222 208 205 214 237 235 186 207 205 222 278 289 257 232 237 238 239 230 220 210 198
242 249 252 258 260 254 242 246 251 251 250 253 264 268 266 265 256 241 229 227 228 233 234 198 207 212 213 246 269 273 253 240 217 230 229 221 218 214
242 247 259 264 264 259 252 253 246 231 229 246 260 262 257 259 261 263 261 251 263 263 258 232 220 224 211 227 243 253 263 264 230 227 224 213 213 205
261 268 268 269 266 268 271 263 239 228 228 242 255 262 269 268 253 246 255 257 276 286 284 263 236 218 230 240 232 249 241 238 244 232 226 233 220 210
228 255 278 286 294 298 295 285 265 247 253 261 264 273 270 264 262 256 239 231 240 266 290 299 286 235 231 228 242 249 248 249 245 237 226 246 246 227
162 211 241 244 249 255 264 277 268 252 251 254 254 259 260 256 262 264 248 240 252 257 260 262 262 340 340 306 239 237 250 253 260 241 217 231 256 253
171 226 237 241 245 243 245 250 258 256 246 241 246 251 253 255 257 258 254 249 248 251 251 238 212 196 239 267 280 238 223 243 239 251 236 222 241 253
225 240 245 245 244 241 246 254 264 273 266 257 253 252 247 245 249 252 246 242 244 247 254 252 231 219 221 233 241 268 241 217 216 229 243 245 257 271
236 243 248 245 243 242 246 250 254 258 264 261 263 263 259 255 256 259 253 246 241 244 248 252 249 241 232 196 255 270 269 249 225 219 216 225 271 277
247 245 250 246 240 242 244 247 252 258 266 266 267 265 263 257 256 260 255 252 246 243 250 262 263 230 201 220 241 253 268 291 293 270 230 205 197 211
254 252 252 248 243 245 240 236 241 252 247 253 261 262 264 267 265 258 254 252 254 258 263 265 270 253 231 224 233 251 259 267 283 311 304 299 252 245
Height
1530 1530 1530 1529 1529 1528 1528 1527 1527 1525 1523 1523 1523 1523 1523 1523 1523 1522 1522 1522 1522 1522 1521 1521 1521 1520 1520 1520 1520 1520 1520 1521 1521 1521 1522 1522 1522 1522
1528 1528 1528 1527 1527 1526 1526 1525 1525 1524 1522 1521 1520 1520 1520 1520 1520 1520 1519 1519 1519 1518 1518 1518 1517 1517 1517 1517 1517 1517 1517 1517 1518 1518 1518 1518 1518 1519
1526 1526 1525 1525 1524 1524 1523 1523 1522 1521 1520 1519 1518 1518 1518 1517 1517 1517 1516 1516 1516 1515 1515 1514 1514 1514 1514 1514 1513 1513 1513 1514 1514 1514 1514 1515 1515 1515
1523 1523 1522 1522 1522 1521 1520 1520 1519 1518 1518 1516 1515 1515 1514 1514 1514 1514 1513 1513 1512 1512 1512 1511 1511 1510 1510 1510 1510 1510 1510 1510 1510 1511 1511 1511 1511 1511
1521 1520 1520 1519 1519 1518 1517 1516 1516 1515 1514 1513 1512 1512 1511 1511 1511 1510 1510 1510 1509 1509 1508 1508 1508 1507 1507 1507 1506 1506 1506 1506 1507 1507 1507 1507 1507 1508
1518 1517 1516 1516 1515 1515 1514 1513 1512 1512 1511 1510 1509 1508 1508 1508 1507 1507 1506 1506 1505 1505 1505 1504 1504 1504 1503 1503 1503 1503 1503 1503 1503 1503 1503 1503 1504 1504
1514 1513 1513 1512 1512 1511 1511 1509 1509 1508 1507 1506 1506 1505 1504 1504 1503 1503 1502 1502 1501 1501 1501 1500 1500 1500 1499 1499 1499 1499 1499 1499 1499 1499 1499 1499 1500 1500
1510 1510 1510 1509 1509 1508 1507 1506 1506 1505 1503 1503 1502 1501 1501 1501 1500 1500 1499 1498 1497 1498 1497 1496 1496 1495 1495 1495 1495 1495 1495 1494 1495 1495 1495 1495 1495 1496
1507 1507 1506 1506 1505 1505 1504 1503 1502 1501 1500 1499 1499 1498 1498 1497 1497 1497 1496 1495 1494 1494 1493 1491 1492 1491 1491 1490 1491 1491 1490 1490 1490 1490 1491 1491 1491 1492
1504 1503 1503 1502 1502 1501 1500 1499 1499 1498 1497 1496 1496 1495 1495 1495 1494 1494 1492 1492 1491 1491 1490 1489 1488 1487 1487 1486 1486 1486 1486 1486 1486 1486 1487 1487 1487 1487
1500 1500 1499 1499 1498 1498 1497 1496 1495 1495 1495 1493 1493 1493 1492 1492 1491 1490 1489 1488 1487 1487 1487 1486 1484 1484 1483 1482 1482 1482 1482 1482 1482 1482 1482 1483 1483 1483
1496 1496 1496 1495 1495 1494 1494 1493 1491 1491 1491 1490 1490 1490 1489 1489 1488 1487 1486 1485 1484 1483 1483 1482 1481 1481 1479 1479 1478 1478 1478 1477 1477 1477 1478 1478 1478 1478
1493 1493 1493 1492 1491 1491 1490 1489 1488 1488 1488 1487 1486 1486 1485 1485 1484 1484 1483 1482 1481 1480 1480 1479 1478 1477 1477 1475 1474 1474 1474 1473 1473 1473 1473 1473 1474 1474
1490 1490 1489 1489 1488 1488 1487 1486 1486 1485 1484 1483 1483 1482 1481 1481 1480 1480 1479 1478 1478 1477 1476 1475 1474 1473 1472 1471 1470 1469 1469 1469 1468 1468 1468 1469 1469 1469
1487 1486 1486 1485 1485 1484 1483 1482 1482 1481 1480 1479 1478 1478 1478 1477 1476 1476 1475 1474 1473 1472 1472 1471 1470 1469 1468 1467 1466 1465 1464 1464 1464 1464 1464 1464 1464 1464
1484 1483 1482 1482 1481 1480 1479 1478 1478 1477 1476 1475 1474 1474 1474 1473 1472 1471 1470 1469 1468 1467 1467 1466 1466 1465 1464 1463 1462 1461 1460 1460 1459 1459 1459 1459 1459 1459
1480 1479 1478 1477 1476 1475 1475 1474 1474 1473 1472 1471 1470 1469 1469 1468 1467 1466 1465 1464 1463 1462 1461 1461 1461 1460 1459 1459 1457 1456 1456 1455 1455 1454 1454 1453 1453 1454
1475 1473 1472 1472 1471 1471 1470 1469 1469 1468 1467 1466 1465 1464 1464 1463 1462 1461 1460 1459 1458 1457 1457 1456 1456 1455 1455 1454 1454 1452 1451 1451 1450 1450 1449 1448 1448 1449
1470 1468 1468 1467 1466 1466 1465 1465 1464 1463 1463 1461 1460 1459 1458 1457 1456 1456 1455 1454 1453 1452 1452 1451 1451 1450 1449 1448 1448 1448 1447 1446 1446 1445 1444 1444 1443 1444
1465 1464 1463 1463 1462 1461 1461 1460 1459 1458 1457 1456 1456 1454 1453 1452 1451 1450 1450 1449 1448 1447 1446 1446 1446 1445 1444 1443 1442 1443 1443 1442 1442 1441 1440 1439 1439 1439
1460 1459 1459 1458 1457 1456 1455 1455 1454 1453 1452 1451 1450 1449 1448 1447 1446 1445 1444 1443 1443 1442 1441 1440 1440 1440 1440 1439 1438 1437 1438 1438 1438 1437 1436 1435 1435 1434
1456 1455 1454 1453 1453 1452 1451 1450 1449 1448 1446 1445 1445 1444 1443 1442 1441 1440 1439 1438 1437 1436 1436 1436 1435 1435 1435 1434 1433 1432 1432 1433 1433 1433 1433 1432 1431 1430
1452 1451 1450 1449 1448 1447 1446 1445 1444 1443 1441 1440 1440 1439 1437 1437 1435 1434 1434 1433 1432 1431 1431 1431 1430 1430 1429 1429 1429 1428 1428 1428 1428 1428 1428 1428 1428 1427